Torna al catalogo

LILIUM-3

AttivoScienzaSSO
NORAD 66770·PAYLOAD·🇹🇼 Taiwan

Lanciato Nov 28, 2025 da Vandenberg Space Force Base

Loading…

Prossimi Passaggi (prossime 24 ore)

TLE

AggiornatoSource: Space-Track

Epoca: Sep 14, 2026, 12:13 UTC

1 66770U 25276DJ  26257.50928776  .00001764  00000-0  85386-4 0  9996
2 66770  97.4171 329.7766 0001012   1.7309 358.3929 15.19877490 43996

Traccia LILIUM-3 in tempo reale con AllMySat

Download on the App Store